Regional Weather Roundup
Issued by NWS Sterling, VA

Home | Current Version | Previous Version | Text Only | Print | Product List | Glossary On
Versions: 1 2 3 4 5 6 7 8 9 10 11 12 13 14 15 16 17 18 19 20 21 22 23 24 25 26 27
000
ASUS41 KLWX 240910
RWRLWX

REGIONAL WEATHER ROUNDUP
NATIONAL WEATHER SERVICE BALTIMORE MD/WASHINGTON DC
400 AM EST TUE JAN 24 2017

Note: "FAIR" indicates few or no clouds below 12,000 feet
with no significant weather and/or obstructions to visibility.
 TC=TEMPERATURE CELSIUS

 * =Non NWS site. Station does not report precipitation (e.g. rain,
    snow, etc.), thunder, or fog.

DCZ001-MDZ009-015-VAZ040>042-051-053>054-241000-
WASHINGTON METRO

CITY           SKY/WX    TMP DP  RH WIND       PRES   REMARKS
WASHINGTON NAT LGT RAIN  39  37  92 NW15      29.47S
DULLES         DRIZZLE   36  34  92 NW14      29.50R WCI  27
ANDREWS AFB    DRIZZLE   37  36  93 NW16      29.44S WCI  28
FT BELVOIR     LGT RAIN  37  36  93 NW14      29.47S WCI  29
QUANTICO       LGT RAIN  38  37  97 N16G29    29.49S WCI  29
COLLEGE PARK*  CLOUDY    36  34  93 NW8       29.46S
LEESBURG*      LGT RAIN  37  37 100 NW17      29.52R WCI  28
GAITHERSBURG*  CLOUDY    36  32  87 NW8       29.51S

$$

MDZ006>007-011-014-241000-
BALTIMORE METRO

CITY           SKY/WX    TMP DP  RH WIND       PRES   REMARKS
BWI AIRPORT    CLOUDY    38  37  97 NW10      29.44F
MD SCIENCE CTR   N/A     40  34  79 MISG      29.44F
ANNAPOLIS      LGT RAIN  40  37  89 NW12      29.42F
FORT MEADE*    CLOUDY    36  36 100 NW7       29.47S

$$

MDZ012-015-019>023-241000-
MARYLAND EASTERN SHORE

CITY           SKY/WX    TMP DP  RH WIND       PRES   REMARKS
OCEAN CITY     CLOUDY    40  39  97 N17G28    29.31S
SALISBURY      CLOUDY    39  38  96 N15G23    29.33F
BAY BRIDGE AP* CLOUDY    37  37 100 N15G22    29.42F WCI  28
CAMBRIDGE*     CLOUDY    37  36  93 NW13G18   29.38S
EASTON*        DRIZZLE   39  37  91 N9        29.43F

$$

MDZ017>025-241000-
SOUTHERN MARYLAND

CITY           SKY/WX    TMP DP  RH WIND       PRES   REMARKS
PATUXENT RIVER CLOUDY    39  37  92 NW20      29.41S
ST INIGOES     CLOUDY    39  39 100 NW9G16    29.40S
LEONARDTOWN*   CLOUDY    37  36  93 NW7G16    29.43S

$$

MDZ003>005-241000-
NORTH CENTRAL MARYLAND

CITY           SKY/WX    TMP DP  RH WIND       PRES   REMARKS
FREDERICK*     LGT RAIN  36  36 100 N5        29.53R
HAGERSTOWN APT CLOUDY    36  33  89 NW10      29.51S FOG     WCI  28
WESTMINSTER*   LGT RAIN  34  34 100 N13G18    29.46S WCI  25

$$

MDZ501>502-241000-
WESTERN MARYLAND

CITY           SKY/WX    TMP DP  RH WIND       PRES   REMARKS
OAKLAND*       FOG       28  28 100 CALM      29.51S VSB 1/2
CUMBERLAND*    PTCLDY    36  36 100 CALM      29.61R

$$

VAZ025>031-241000-
SHENANDOAH VALLEY

CITY           SKY/WX    TMP DP  RH WIND       PRES   REMARKS
WINCHESTER*    CLOUDY    34  32  93 NW10      29.53R WCI  26
FRONT ROYAL*   CLOUDY    36  34  93 NW3       29.53R
LURAY*         CLOUDY    34  34 100 CALM      29.53S
NEW MARKET*    CLOUDY    34  33  96 CALM      29.53R
STAUNTON*      CLOUDY    34  32  92 NE6       29.54S
WAYNESBORO*    PTSUNNY   33  32  96 NW5       29.51S

$$

WVZ021-048>050-054>055-241000-
EASTERN WEST VIRGINIA PANHANDLE

CITY           SKY/WX    TMP DP  RH WIND       PRES   REMARKS
MARTINSBURG    CLOUDY    36  33  89 NW9       29.53R WCI  29
PETERSBURG*    CLOUDY    36  34  92 CALM      29.58R

$$

VAZ036>039-050-241000-
CENTRAL FOOTHILLS

CITY           SKY/WX    TMP DP  RH WIND       PRES   REMARKS
CHARLOTTESVILL CLOUDY    41  31  67 NW13      29.49S
CULPEPER*      CLOUDY    38  35  90 N10       29.52R
ORANGE*        DRIZZLE   37  36  93 NW6       29.52R
GORDONSVILLE*  CLOUDY    38  34  87 CALM      29.50R
WARRENTON*     DRIZZLE   38  33  82 NW10      29.50R

$$

VAZ055>057-241000-
NORTH AND CENTRAL PIEDMONT

CITY           SKY/WX    TMP DP  RH WIND       PRES   REMARKS
FREDERICKSBRG* CLOUDY    38  38 100 NW13G21   29.48R
STAFFORD*      CLOUDY    36  36 100 NW17G23   29.53R WCI  26

$$

NCZ024-NYZ072-PAZ021-071-VAZ022-071-241000-
OTHER REGIONAL OBSERVATIONS

CITY           SKY/WX    TMP DP  RH WIND       PRES   REMARKS
NEW YORK CITY  MIX PCPN  37  35  92 NE15G22   29.37S FOG     WCI  28
PHILADELPHIA   LGT RAIN  39  36  89 N14       29.39S
PITTSBURGH     CLOUDY    36  36 100 NW5       29.60S
ROANOKE        CLOUDY    44  35  70 NW10G18   29.53R
RICHMOND       CLOUDY    38  36  92 NW18G25   29.47R WCI  28
RALEIGH        CLOUDY    43  37  79 NW5       29.52R

$$

ANZ530>537-241000-
MARINE OBSERVATIONS

STATION/POSITION TIME  TEMP    WIND        PRES
                       AIR SEA DIR/SP/G
                 (UTC) (F)     (DEG/KT/KT) (MB)
THOMAS PT LIGHT  0900   38 40  330/ 16/ 18   N/A
BALT KEY BRIDGE  0848   39     320/ 13/ 17  996.7F
COVE POINT       0848   38     360/ 25/ 27  996.0F
LEWISETTA        0848   40 44  340/ 13/ 20  995.8R
SOLOMONS ISLAND  0848          330/ 11/ 18   N/A
PINEY POINT      0848          350/ 19/ 21   N/A

$$





USA.gov is the U.S. government's official web portal to all federal, state and local government web resources and services.